CZ-3C DEB, 40197

Orbit data source: Space-Track

CZ-3C DEB, 40197 is space debris in HEO originally from a launch on Fri, 24 Feb 2012 UTC launched from the Xichang Space Center, China (XSC). Debris objects in space refer to the collection of defunct objects orbiting the Earth. Examples of debris include non-operational satellites, rocket bodies, and fragments generated from explosions, collisions, or faulty payload assembly.

Loading next visibility...
Identifier
40197, 2012-008G
Orbit
HEO
Country
Flag of CNCN / PRC
Related business
Manufacturer
CALT
Mission
Spacecraft
Bus & Motor
Unknown
Mass
Unknown
Launch date (UTC)
2012-02-24 (14 years ago)
Launch vehicle
Unknown
Launch site
Xichang Space Center, China (XSC)
Object type
Payload
Rocket body
Debris
Shape & HBR
Unknown shape, 0.2 m
Radar Cross Section
Medium (>0.1 m² and <1 m²)

Expand to show TLE details & history
Last TLE update: 1 day ago

TLE from 1 day ago
0 CZ-3C DEB
1 40197U 12008G   26119.43840599 -.00000260  00000-0  00000-0 0  9992
2 40197  20.5588 264.5045 6977203 126.3057 319.7168  2.19850443 99903
Epoch: 2026-04-29T10:31Z
TLE epoch observation values (Epoch: 2026-04-29T10:31:18.277Z)
Latitude
0.00001°
Longitude
-110.8744°
Altitude
15,463.874 km
Speed
4.532 km/s
True Right ascension
17h 37m 24s
True Declination
0° 00' 00"
Sunlit
Object was in daylight at epoch
Visualization orbit readout
Latitude
Unknown
Longitude
Unknown
Altitude
Unknown
Speed
Unknown
Apparent Right ascension
Unknown
Apparent Declination
Unknown
Sunlit
N/A
Visualization observer readout
Local Sidereal Time
18:56:54
Azimuth
Unknown
Elevation
Unknown
Doppler factor
Unknown
Orbital elements
Apogee altitude
36,043.227 km
Perigee altitude
1,175.002 km
Semi-major axis
24,987.251 km
Eccentricity
0.69772
Inclination
20.5588°
RAAN
264.5045°
Arg. of periapsis
126.3057°
True anomaly
233.71738°
Mean anomaly
319.7168°
Eccentric anomaly
280.39671°
Mean motion
0.5495 °/min
Orbital period
655.14 mins
BSTAR
0
Loading maneuver chart data...
Computing Atmospheric mass density...
Loading historical data...
Loading historical data...
Loading historical data...
Loading historical data...
Loading historical data...
Loading historical data...
Loading historical data...

Documentation

Showing up to 5 results
|